KK4URH Weather Reports


Display with metric or nautical units.
time (UTC)temp
F
wind
direction
speed
MPH
gust
MPH
rain 1hr
in
rain 24hr
in
rain mn
in
humidity
%
barometer
mb
20260510173007 79 80 0.0 0.0 0.00 0.00 0.00 39 1014.4
20260510171505 78 80 0.0 0.0 0.00 0.00 0.00 40 1014.5
20260510170006 78 46 0.0 0.0 0.00 0.00 0.00 36 1014.5
20260510164536 78 158 0.0 0.0 0.00 0.00 0.00 38 1014.5
20260510163034 78 42 0.0 0.0 0.00 0.00 0.00 38 1014.6
20260510161528 78 62 0.0 0.0 0.00 0.00 0.00 40 1014.8
20260510160026 77 9 0.0 0.0 0.00 0.00 0.00 43 1014.8
20260510154531 76 5 0.0 0.0 0.00 0.00 0.00 41 1015.0
20260510153039 76 29 0.0 0.0 0.00 0.00 0.00 41 1015.1
20260510151549 75 102 0.0 0.0 0.00 0.00 0.00 50 1015.0
20260510150105 74 37 0.0 0.0 0.00 0.00 0.00 53 1015.0
20260510144606 74 74 0.0 0.0 0.00 0.00 0.00 52 1014.9
20260510143039 72 54 0.0 0.0 0.00 0.00 0.00 55 1014.9
20260510141544 71 37 0.0 0.0 0.00 0.00 0.00 57 1014.8
20260510140038 71 355 0.0 0.0 0.00 0.00 0.00 60 1014.9
20260510134535 70 360 0.0 0.0 0.00 0.00 0.00 62 1015.1
20260510133035 68 261 0.0 0.0 0.00 0.00 0.00 65 1014.9
20260510131532 67 260 0.0 0.0 0.00 0.00 0.00 67 1014.7
20260510130031 66 271 0.0 0.0 0.00 0.00 0.00 68 1014.5
20260510124502 65 330 0.0 0.0 0.00 0.00 0.00 70 1014.4
20260510123002 64 298 0.0 0.0 0.00 0.00 0.00 71 1014.4
20260510121603 64 253 0.0 0.0 0.00 0.00 0.00 76 1014.2
20260510120056 63 256 0.0 0.0 0.00 0.00 0.00 77 1014.2
20260510114555 62 351 0.0 0.0 0.00 0.00 0.00 78 1014.1
20260510113052 61 200 0.0 0.0 0.00 0.00 0.00 77 1013.8
20260510111552 61 200 0.0 0.0 0.00 0.00 0.00 77 1013.5
20260510110051 61 197 0.0 0.0 0.00 0.00 0.00 77 1013.5
20260510104557 60 197 0.0 0.0 0.00 0.00 0.00 77 1013.2
20260510103045 60 197 0.0 0.0 0.00 0.00 0.00 76 1013.0
20260510101550 61 197 0.0 0.0 0.00 0.00 0.00 76 1012.8
20260510100014 61 197 0.0 0.0 0.00 0.00 0.00 77 1012.7
20260510094513 61 197 0.0 0.0 0.00 0.00 0.00 77 1012.6
20260510093009 61 197 0.0 0.0 0.00 0.00 0.00 77 1012.3
20260510091507 61 197 0.0 0.0 0.00 0.00 0.00 76 1012.0
20260510090008 61 197 0.0 0.0 0.00 0.00 0.00 77 1011.9
20260510084520 60 197 0.0 0.0 0.00 0.00 0.00 76 1011.8
20260510083005 61 197 0.0 0.0 0.00 0.00 0.00 76 1011.8
20260510081505 61 197 0.0 0.0 0.00 0.00 0.00 76 1011.8
20260510080002 60 197 0.0 0.0 0.00 0.00 0.00 75 1011.7
20260510074502 60 197 0.0 0.0 0.00 0.00 0.00 75 1011.7
20260510073059 60 197 0.0 0.0 0.00 0.00 0.00 75 1011.7
20260510071601 61 197 0.0 0.0 0.00 0.00 0.00 75 1011.5
20260510070059 61 197 0.0 0.0 0.00 0.00 0.00 75 1011.3
20260510064603 61 197 0.0 0.0 0.00 0.00 0.00 75 1011.7
20260510063055 60 197 0.0 0.0 0.00 0.00 0.00 72 1011.6
20260510061603 61 197 0.0 0.0 0.00 0.00 0.00 72 1011.4
20260510060054 61 197 0.0 0.0 0.00 0.00 0.00 72 1011.6
20260510054553 61 197 0.0 0.0 0.00 0.00 0.00 72 1011.9
20260510053055 61 197 0.0 0.0 0.00 0.00 0.00 72 1011.9
20260510051548 62 197 0.0 0.0 0.00 0.00 0.00 72 1012.1
20260510050047 62 197 0.0 0.0 0.00 0.00 0.00 72 1012.1
20260510044549 62 197 0.0 0.0 0.00 0.00 0.00 72 1012.2
20260510043016 62 197 0.0 0.0 0.00 0.00 0.00 72 1012.3
20260510041515 62 197 0.0 0.0 0.00 0.00 0.00 69 1012.1
20260510040048 62 197 0.0 0.0 0.00 0.00 0.00 69 1012.2
20260510034550 62 197 0.0 0.0 0.00 0.00 0.00 67 1012.0
20260510033040 62 197 0.0 0.0 0.00 0.00 0.00 67 1011.9
20260510031554 62 197 0.0 0.0 0.00 0.00 0.00 66 1011.9
20260510030038 63 197 0.0 0.0 0.00 0.00 0.00 66 1011.9
20260510024537 63 197 0.0 0.0 0.00 0.00 0.00 66 1011.9
20260510023038 63 197 0.0 0.0 0.00 0.00 0.00 65 1011.7
20260510021535 64 197 0.0 0.0 0.00 0.00 0.00 65 1011.6
20260510020030 64 197 0.0 0.0 0.00 0.00 0.00 65 1011.3
20260510014527 65 197 0.0 0.0 0.00 0.00 0.00 64 1011.5
20260510013110 66 197 0.0 0.0 0.00 0.00 0.00 64 1011.1
20260510011555 67 197 0.0 0.0 0.00 0.00 0.00 64 1010.7
20260510010051 67 197 0.0 0.0 0.00 0.00 0.00 65 1010.7
20260510004551 68 197 0.0 0.0 0.00 0.00 0.00 64 1010.5
20260510003051 69 197 0.0 0.0 0.00 0.00 0.00 63 1010.4
20260510001553 70 197 0.0 0.0 0.00 0.00 0.00 62 1010.5
20260510000036 70 197 0.0 0.0 0.00 0.00 0.00 61 1010.5
20260509234538 71 197 0.0 1.0 0.00 0.00 0.00 60 1010.4
20260509233031 72 197 0.0 0.0 0.00 0.00 0.00 59 1010.2
20260509231530 72 360 0.0 0.0 0.00 0.00 0.00 59 1009.9
20260509230015 72 360 0.0 2.0 0.00 0.00 0.00 58 1009.7
20260509224514 73 200 0.0 0.0 0.00 0.00 0.00 58 1009.6
20260509223114 72 200 0.0 3.0 0.00 0.00 0.00 58 1009.8
20260509221543 72 283 0.0 0.0 0.00 0.00 0.00 58 1009.7
20260509220041 73 207 0.0 0.0 0.00 0.00 0.00 57 1009.9
20260509214536 73 202 0.0 0.0 0.00 0.00 0.00 57 1009.6
20260509213030 73 221 0.0 4.0 0.00 0.00 0.00 57 1009.6
20260509211529 72 215 0.0 4.0 0.00 0.00 0.00 57 1009.6
20260509210030 73 202 1.0 5.0 0.00 0.00 0.00 55 1009.6
20260509204603 73 190 1.0 4.0 0.00 0.00 0.00 55 1009.3
20260509203054 72 360 1.0 4.0 0.00 0.00 0.00 58 1009.5
20260509201526 71 360 0.0 3.0 0.00 0.00 0.00 58 1009.7
20260509200020 71 194 1.0 4.0 0.00 0.00 0.00 57 1009.7
20260509194522 71 360 0.0 1.0 0.00 0.00 0.00 57 1009.9
20260509193016 71 360 0.0 2.0 0.00 0.00 0.00 56 1010.1
20260509191514 71 360 0.0 3.0 0.00 0.00 0.00 55 1010.4
20260509190013 71 138 0.0 3.0 0.00 0.00 0.00 56 1010.2
20260509184508 70 190 1.0 4.0 0.00 0.00 0.00 56 1010.4
20260509183008 70 198 0.0 4.0 0.00 0.00 0.00 56 1010.5
20260509181506 71 160 1.0 8.0 0.00 0.00 0.00 53 1010.6
20260509180003 71 197 2.0 9.0 0.00 0.00 0.00 53 1011.1
20260509174600 72 196 2.0 8.0 0.00 0.00 0.00 51 1011.3